Location: ????????
(55.1591°N, 39.1782°E)
Time: 10:11:23
(UTC+00:00)

Cosmos 1975 - Pass Details

Date: 14 April 2024
Orbit: 514 x 533 km, 82.5° (Epoch: 20 May)

Event Time Altitude Azimuth Distance (km) Brightness Sun altitude
Rises 01:19:15 0° 344° (NNW) 2,649 6.5 -8.9°
Reaches altitude 10° 01:21:26 10° 339° (NNW) 1,758 5.5 -8.6°
Maximum altitude 01:25:08 47° 265° (W) 694 3.0 -8.2°
Drops below altitude 10° 01:28:50 10° 191° (S) 1,751 5.0 -7.7°
Sets 01:31:01 0° 185° (S) 2,638 6.0 -7.5°
